Gainesville, GA

8:27 PM EST on December 12, 2019 (GMT -0500)
Gilmer Memorial

Weather History for KGVL - August, 2019

Change the Weather History Date:

Sunday, August 18, 2019

  Actual Average Record
Temperature  
Mean Temperature 83 °F 78 °F  
Max Temperature 94 °F 87 °F 100 °F (1954)
Min Temperature 71 °F 69 °F 60 °F (1958)
Cooling Degree Days 18 13  
Month to date cooling degree days 284 246  
Year to date cooling degree days 1357 1168  
Since 1 June cooling degree days 1021 993  
Growing Degree Days 32 (Base 50)    
Moisture  
Dew Point 70 °F    
Average Humidity 69    
Maximum Humidity 100    
Minimum Humidity 38    
Precipitation  
Precipitation 0.00 in 0.14 in 2.76 in (1939)
Month to date precipitation 2.13 2.82  
Year to date precipitation 36.97 34.64  
Sea Level Pressure  
Sea Level Pressure 30.02 in    
Wind  
Wind Speed 3 mph (East)    
Max Wind Speed 10 mph    
Max Gust Speed 15 mph    
Visibility 10 miles    
Events      
T = Trace of Precipitation, MM = Missing Value Source: NWS Daily Summary

Daily Weather History Graph

Daily Weather History Graph

Search for Another Location

Airport or City:

Astronomy

Aug. 18, 2019 Rise Set
Actual Time 6:58 AM EDT 8:19 PM EDT
Civil Twilight 6:32 AM EDT 8:45 PM EDT
Nautical Twilight 6:00 AM EDT 9:17 PM EDT
Astronomical Twilight 5:27 AM EDT 9:49 PM EDT
Moon 10:20 PM EDT (8/18) 9:37 AM EDT (8/18)
Length of Visible Light 14h 13m
Length of Day
13h 20m
Waning Gibbous, 91% of the Moon is Illuminated
Aug 18
Waning Gibbous
Aug 23
Last Quarter
Aug 30
New
Sep 5
First Quarter
Sep 14
Full

Hourly Weather History & Observations

Time (EDT) Temp. Heat Index Dew Point Humidity Pressure Visibility Wind Dir Wind Speed Gust Speed Precip Events Conditions
12:53 AM 79.0 °F - 70.0 °F 74% 30.01 in 10.0 mi East 10.4 mph - N/A   Clear
1:53 AM 75.0 °F - 72.0 °F 90% 30.00 in 10.0 mi East 6.9 mph - N/A   Clear
2:53 AM 73.9 °F - 72.0 °F 93% 30.00 in 10.0 mi ENE 4.6 mph - N/A   Clear
3:53 AM 73.0 °F - 72.0 °F 96% 30.00 in 10.0 mi NE 5.8 mph - N/A   Clear
4:53 AM 73.0 °F - 72.0 °F 96% 30.00 in 10.0 mi ENE 3.5 mph - N/A   Clear
5:53 AM 71.1 °F - 71.1 °F 100% 30.01 in 10.0 mi North 3.5 mph - N/A   Clear
6:53 AM 72.0 °F - 71.1 °F 97% 30.02 in 10.0 mi Calm Calm - N/A   Clear
7:53 AM 73.0 °F - 72.0 °F 96% 30.03 in 10.0 mi East 4.6 mph - N/A   Clear
8:53 AM 77.0 °F - 72.0 °F 84% 30.04 in 10.0 mi Calm Calm - N/A   Clear
9:53 AM 82.0 °F 87.4 °F 73.0 °F 74% 30.04 in 10.0 mi Calm Calm - N/A   Clear
10:53 AM 84.0 °F 89.6 °F 72.0 °F 67% 30.05 in 10.0 mi Calm Calm - N/A   Clear
11:53 AM 88.0 °F 95.6 °F 73.0 °F 61% 30.06 in 10.0 mi Calm Calm - N/A   Clear
12:53 PM 90.0 °F 95.4 °F 70.0 °F 52% 30.05 in 10.0 mi Variable 5.8 mph - N/A   Clear
1:53 PM 91.9 °F 95.9 °F 68.0 °F 45% 30.04 in 10.0 mi Calm Calm - N/A   Clear
2:53 PM 93.0 °F 96.4 °F 66.9 °F 42% 30.02 in 10.0 mi North - - N/A   Overcast
4:53 PM 91.0 °F 91.5 °F 62.1 °F 38% 29.98 in 10.0 mi SE 6.9 mph - N/A   Mostly Cloudy
5:53 PM 91.9 °F 92.9 °F 63.0 °F 38% 29.97 in 10.0 mi South 5.8 mph - N/A   Clear
6:53 PM 90.0 °F 92.4 °F 66.0 °F 45% 29.98 in 10.0 mi SE 3.5 mph - N/A   Clear
7:53 PM 84.0 °F 88.4 °F 70.0 °F 63% 30.00 in 10.0 mi East 6.9 mph - N/A   Clear
8:53 PM 82.0 °F 85.9 °F 70.0 °F 67% 30.01 in 10.0 mi ESE 4.6 mph - N/A   Clear
9:53 PM 80.1 °F 83.6 °F 71.1 °F 74% 30.02 in 10.0 mi East 4.6 mph - N/A   Clear
10:53 PM 77.0 °F - 71.1 °F 82% 30.03 in 10.0 mi Calm Calm - N/A   Clear
11:53 PM 77.0 °F - 71.1 °F 82% 30.03 in 10.0 mi Calm Calm - N/A   Clear